Location: Shannon
(40.5500°S, 175.4167°E)
Time: 20:27:31
(UTC+00:00)

Okean 1-7 - Pass Details

Date: 17 November 2025
Orbit: 566 x 590 km, 82.5° (Epoch: 14 December)

Event Time Altitude Azimuth Distance (km) Brightness Sun altitude
Rises 14:01:37 0° 182° (S) 2,812 7.3 -24.3°
Reaches altitude 10° 14:03:54 10° 175° (S) 1,907 6.4 -24.1°
Maximum altitude 14:07:57 45° 101° (ESE) 803 3.8 -23.7°
Enters shadow 14:09:09 35° 57° (ENE) 955 4.0 -23.5°
